Location: Anjeux
(47.8815°N, 6.2076°E)
Time: 12:54:37
(UTC+00:00)

RS-44 - Visible Passes

Search period start: 06 December 2021 00:00
Search period end: 16 December 2021 00:00
Orbit: 1174 x 1511 km, 82.5° (Epoch: 05 December)

Date Brightness Start Highest point End Pass type
(mag) Time Alt. Az. Time Alt. Az. Time Alt. Az.
06 Dec ? 04:21:47 10° N 04:28:21 30° ENE 04:35:17 10° SE visible
06 Dec ? 06:14:48 10° NNW 06:22:19 65° W 06:30:22 10° S visible
06 Dec ? 17:07:46 10° ESE 17:12:34 20° ENE 17:13:12 19° ENE visible
06 Dec ? 18:57:49 10° S 19:05:02 83° W 19:05:56 71° N visible
06 Dec ? 20:55:07 10° W 21:06:05 - N 20:58:40 17° WNW visible
07 Dec ? 04:45:13 10° N 04:52:29 45° ENE 05:00:13 10° SE visible
07 Dec ? 17:29:47 10° SE 17:35:53 31° E 17:39:04 22° NE visible
07 Dec ? 19:21:53 10° SSW 19:28:55 55° WNW 19:31:52 35° NNW visible
07 Dec ? 21:22:06 10° WNW 21:24:22 11° NW 21:24:41 11° NW visible
08 Dec ? 03:17:08 10° NNE 03:21:26 15° NE 03:25:52 10° E visible
08 Dec ? 05:08:50 10° N 05:16:29 66° ENE 05:24:40 10° SSE visible
08 Dec ? 17:52:32 10° SSE 17:59:20 48° E 18:06:11 10° NNE visible
08 Dec ? 19:46:26 10° SW 19:52:57 36° WNW 19:59:35 10° N visible
09 Dec ? 03:40:00 10° N 03:45:55 23° ENE 03:52:07 10° ESE visible
09 Dec ? 05:32:35 10° N 05:40:19 86° W 05:48:38 10° S visible
09 Dec ? 16:27:45 10° E 16:30:55 13° ENE 16:34:05 10° NE visible
09 Dec ? 18:15:48 10° S 18:22:56 74° E 18:30:10 10° NNE visible
09 Dec ? 20:11:33 10° WSW 20:17:11 24° WNW 20:22:56 10° N visible
10 Dec ? 04:03:18 10° N 04:10:13 34° ENE 04:17:31 10° SE visible
10 Dec ? 05:56:29 10° NNW 06:04:02 59° W 06:12:09 10° SSW visible
10 Dec ? 16:48:54 10° SE 16:54:05 22° E 16:59:20 10° NNE visible
10 Dec ? 18:39:31 10° SSW 18:46:41 75° WNW 18:53:59 10° N visible
10 Dec ? 20:37:25 10° W 20:41:38 16° NW 20:45:55 10° NNW visible
11 Dec ? 02:36:21 10° NNE 02:38:44 11° NE 02:41:10 10° ENE visible
11 Dec ? 04:26:48 10° N 04:34:19 50° ENE 04:42:21 10° SSE visible
11 Dec ? 06:20:33 10° NNW 06:27:38 40° W 06:35:09 10° SSW visible
11 Dec ? 17:11:08 10° SSE 17:17:25 35° E 17:23:48 10° NNE visible
11 Dec ? 19:03:43 10° SSW 19:10:37 49° WNW 19:17:40 10° N visible
11 Dec ? 21:05:25 10° NW 21:06:18 10° NW 21:07:12 10° NW visible
12 Dec ? 02:58:25 10° NNE 03:03:24 18° ENE 03:08:34 10° E visible
12 Dec ? 04:50:27 10° N 04:58:16 74° E 05:06:39 10° SSE visible
12 Dec ? 17:34:02 10° SSE 17:40:55 54° E 17:47:57 10° NNE visible
12 Dec ? 19:28:24 10° SW 19:34:42 33° WNW 19:41:12 10° N visible
13 Dec ? 03:21:27 10° N 03:27:50 26° ENE 03:34:31 10° ESE visible
13 Dec ? 05:14:14 10° NNW 05:22:05 78° W 05:30:30 10° S visible
13 Dec ? 16:08:32 10° ESE 16:12:25 16° ENE 16:16:20 10° NE visible
13 Dec ? 17:57:24 10° S 18:04:33 82° E 18:11:54 10° NNE visible
13 Dec ? 19:53:39 10° WSW 19:59:01 22° WNW 20:04:31 10° N visible
14 Dec ? 03:44:50 10° N 03:52:04 38° ENE 03:59:45 10° SE visible
14 Dec ? 05:38:11 10° NNW 05:45:46 54° W 05:53:53 10° SSW visible
14 Dec ? 16:30:04 10° SE 16:35:37 25° E 16:41:17 10° NNE visible
14 Dec ? 18:21:15 10° SSW 18:28:21 67° WNW 18:35:42 10° N visible
14 Dec ? 20:19:46 10° W 20:23:32 15° NW 20:27:21 10° NNW visible
15 Dec ? 02:17:11 10° NNE 02:20:45 13° NE 02:24:24 10° ENE visible
15 Dec ? 04:08:23 10° N 04:16:09 56° ENE 04:24:26 10° SSE visible
15 Dec ? 06:02:18 10° NNW 06:09:19 36° W 06:16:46 10° SSW visible
15 Dec ? 16:52:31 10° SSE 16:58:59 39° E 17:05:39 10° NNE visible
15 Dec ? 18:45:33 10° SW 18:52:20 44° WNW 18:59:22 10° N visible
